Location: Bismarck
(46.7731°N, 100.8200°W)
Time: 11:29:31
(UTC-06:00)

Landsat 7 - Visible Passes

Search period start: 22 February 2017 00:00
Search period end: 04 March 2017 00:00
Orbit: 702 x 703 km, 98.2° (Epoch: 22 February)

Date Brightness Start Highest point End Pass type
(mag) Time Alt. Az. Time Alt. Az. Time Alt. Az.
25 Feb 6.7 22:01:46 10° N 22:01:46 10° N 22:01:50 10° N visible
27 Feb 6.5 21:49:12 12° N 21:49:12 12° N 21:49:31 10° N visible
28 Feb 6.8 22:32:21 11° NNW 22:32:21 11° NNW 22:32:31 10° NNW visible
01 Mar 6.3 21:36:39 13° N 21:36:39 13° N 21:37:10 10° N visible
02 Mar 6.6 22:19:48 13° N 22:19:48 13° N 22:20:19 10° N visible
03 Mar 6.2 21:24:05 13° NNE 21:24:05 13° NNE 21:24:45 10° N visible
